Location: Lane
(33.5226°N, 79.8788°W)
Time: 02:16:47
(UTC+00:00)

Explorer 7 - Pass Details

Date: 12 October 2022
Orbit: 481 x 665 km, 50.3° (Epoch: 01 December)

Event Time Altitude Azimuth Distance (km) Brightness Sun altitude
Rises 11:33:24 0° 227° (SW) 2,879 10.1 1.5°
Reaches altitude 10° 11:35:39 10° 227° (SW) 2,001 9.3 2.0°
Maximum altitude 11:40:17 90° 136° (SE) 653 7.3 2.9°
Drops below altitude 10° 11:45:07 10° 49° (NE) 2,080 10.4 3.9°
Sets 11:47:30 0° 49° (NE) 3,001 11.2 4.4°
